Weather History for Miles City, MT

Change the Weather History Date:

Sunday, March 3, 2013

  Actual Average Record
Temperature  
Mean Temperature 43 °F 30 °F  
Max Temperature 57 °F 41 °F 68 °F (1992)
Min Temperature 28 °F 18 °F -25 °F (1960)
Degree Days  
Heating Degree Days 22 35  
Month to date heating degree days 67 107  
Since 1 July heating degree days 5261 5841  
Cooling Degree Days 0 0  
Month to date cooling degree days 0 0  
Year to date cooling degree days 0 0  
Moisture  
Dew Point 32 °F    
Average Humidity 70    
Maximum Humidity 96    
Minimum Humidity 43    
Precipitation  
Precipitation 0.17 in 0.02 in 0.30 in (1966)
Month to date precipitation 0.17 0.04  
Year to date precipitation 0.36 0.59  
Sea Level Pressure  
Sea Level Pressure 29.67 in    
Wind  
Wind Speed 12 mph (West)    
Max Wind Speed 39 mph    
Max Gust Speed 48 mph    
Visibility 7 miles    
Events Rain , Snow    
T = Trace of Precipitation, MM = Missing Value Source: NWS Daily Summary

Daily Weather History Graph

Daily Weather History Graph

Search for Another Location

Airport:

Trip Planner

Search our weather history database for the weather conditions in past years. The results will help you decide how hot, cold, wet, or windy it might be!

Date:

Astronomy

Mar. 03, 2013 Rise Set
Actual Time 6:38 AM MST 5:52 PM MST
Civil Twilight 6:08 AM MST 6:23 PM MST
Nautical Twilight 5:33 AM MST 6:57 PM MST
Astronomical Twilight 4:58 AM MST 7:33 PM MST
Moon No Moon Rise 9:32 AM MST (3/3)
Length of Visible Light 12h 14m
Length of Day
11h 14m
Waning Gibbous, 63% of the Moon is Illuminated
Mar 3
Waning Gibbous
Mar 4
Last Quarter
Mar 11
New
Mar 19
First Quarter
Mar 27
Full

Hourly Weather History & Observations

Time (MST) Temp. Windchill Dew Point Humidity Pressure Visibility Wind Dir Wind Speed Gust Speed Precip Events Conditions
12:53 AM 41.0 °F 35.8 °F 28.9 °F 62% 29.79 in 10.0 mi SSE 8.1 mph - N/A   Overcast
1:53 AM 41.0 °F 35.2 °F 30.0 °F 65% 29.78 in 10.0 mi SSE 9.2 mph - 0.00 in   Overcast
2:53 AM 39.9 °F 37.8 °F 30.0 °F 68% 29.76 in 10.0 mi SSE 3.5 mph - N/A   Mostly Cloudy
3:53 AM 41.0 °F 36.4 °F 30.0 °F 65% 29.73 in 10.0 mi SSE 6.9 mph - N/A   Overcast
5:53 AM 39.9 °F 35.8 °F 30.9 °F 70% 29.73 in 10.0 mi SE 5.8 mph - N/A   Overcast
6:53 AM 39.9 °F 36.7 °F 30.9 °F 70% 29.71 in 10.0 mi SSE 4.6 mph - N/A   Overcast
7:53 AM 41.0 °F 37.1 °F 30.9 °F 67% 29.70 in 10.0 mi SSE 5.8 mph - N/A   Overcast
8:53 AM 44.1 °F 40.1 °F 32.0 °F 63% 29.71 in 10.0 mi WSW 6.9 mph - 0.00 in Rain Light Rain
9:53 AM 43.0 °F 37.7 °F 36.0 °F 76% 29.69 in 10.0 mi SSE 9.2 mph - 0.00 in Rain Light Rain
10:53 AM 46.9 °F - 39.0 °F 74% 29.65 in 10.0 mi SSE 6.9 mph - 0.00 in   Overcast
11:53 AM 52.0 °F - 37.9 °F 59% 29.60 in 10.0 mi SSE 5.8 mph - N/A   Overcast
12:53 PM 57.0 °F - 36.0 °F 45% 29.56 in 10.0 mi South 11.5 mph - N/A   Overcast
1:48 PM 55.4 °F - 33.8 °F 44% 29.53 in 10.0 mi West 12.7 mph - N/A   Overcast
1:53 PM 55.0 °F - 34.0 °F 45% 29.54 in 10.0 mi West 13.8 mph - N/A   Overcast
2:53 PM 55.9 °F - 34.0 °F 44% 29.52 in 10.0 mi WNW 8.1 mph - 0.00 in   Overcast
3:53 PM 46.0 °F 39.3 °F 39.9 °F 79% 29.56 in 2.5 mi NW 16.1 mph - 0.04 in Rain Rain
4:00 PM 46.4 °F 39.2 °F 39.2 °F 76% 29.54 in 4.0 mi NW 18.4 mph - 0.01 in Rain Light Rain
4:10 PM 41.0 °F 28.6 °F 37.4 °F 87% 29.56 in 2.0 mi NNW 38.0 mph 48.3 mph 0.03 in Rain Rain
4:21 PM 37.4 °F 24.0 °F 33.8 °F 87% 29.57 in 3.0 mi NNW 35.7 mph 46.0 mph 0.05 in Rain Light Rain
4:43 PM 37.4 °F 25.4 °F 33.8 °F 87% 29.58 in 10.0 mi NW 27.6 mph 36.8 mph 0.05 in Rain Light Rain
4:53 PM 37.0 °F 24.7 °F 33.1 °F 86% 29.63 in 10.0 mi NNW 28.8 mph 38.0 mph 0.05 in   Overcast
5:04 PM 35.6 °F 23.7 °F 33.8 °F 93% 29.60 in 9.0 mi NNW 24.2 mph 34.5 mph 0.00 in Snow Light Snow
5:15 PM 35.6 °F 23.7 °F 33.8 °F 93% 29.61 in 7.0 mi NNW 24.2 mph 33.4 mph 0.00 in Snow Light Snow
5:25 PM 35.6 °F 23.4 °F 33.8 °F 93% 29.61 in 10.0 mi NW 25.3 mph 31.1 mph 0.00 in Rain Light Rain
5:53 PM 34.0 °F 20.5 °F 32.0 °F 92% 29.72 in 2.5 mi NW 28.8 mph 36.8 mph 0.01 in Snow Light Snow
6:02 PM 33.8 °F 21.3 °F 32.0 °F 93% 29.67 in 1.0 mi NW 24.2 mph 36.8 mph 0.00 in Snow Light Snow
6:07 PM 33.8 °F 20.8 °F 32.0 °F 93% 29.68 in 0.8 mi NW 26.5 mph 38.0 mph 0.01 in Snow Light Snow
6:23 PM 33.8 °F 21.0 °F 30.2 °F 87% 29.68 in 0.8 mi NW 25.3 mph 31.1 mph 0.02 in Snow Light Snow
6:33 PM 33.8 °F 21.9 °F 30.2 °F 87% 29.69 in 1.0 mi WNW 21.9 mph 29.9 mph 0.02 in Snow Light Snow
6:43 PM 33.8 °F 22.8 °F 32.0 °F 93% 29.70 in 0.8 mi WNW 18.4 mph 28.8 mph 0.03 in Snow Light Snow
6:53 PM 33.1 °F 21.9 °F 30.9 °F 92% 29.75 in 0.8 mi WNW 18.4 mph 28.8 mph 0.04 in Snow Light Snow
7:33 PM 33.8 °F 23.9 °F 32.0 °F 93% 29.71 in 1.2 mi West 15.0 mph - 0.03 in Snow Light Snow
7:43 PM 33.8 °F 25.3 °F 30.2 °F 87% 29.71 in 2.0 mi WNW 11.5 mph - 0.03 in Snow Light Snow
7:49 PM 33.8 °F 25.3 °F 30.2 °F 87% 29.71 in 5.0 mi WNW 11.5 mph - 0.03 in Snow Light Snow
7:53 PM 33.1 °F 24.4 °F 30.9 °F 92% 29.76 in 7.0 mi WNW 11.5 mph - 0.03 in Snow Light Snow
8:53 PM 33.1 °F 23.9 °F 30.9 °F 92% 29.77 in 10.0 mi West 12.7 mph - 0.00 in   Overcast
9:53 PM 33.1 °F 22.6 °F 28.9 °F 85% 29.75 in 10.0 mi West 16.1 mph - N/A   Clear
10:53 PM 30.0 °F 19.5 °F 23.0 °F 75% 29.76 in 10.0 mi WNW 13.8 mph - N/A   Clear
11:53 PM 28.9 °F 15.8 °F 21.0 °F 72% 29.77 in 10.0 mi West 20.7 mph 28.8 mph N/A   Clear